CST,Max TemperatureF,Mean TemperatureF,Min TemperatureF,Max Dew PointF,MeanDew PointF,Min DewpointF,Max Humidity, Mean Humidity, Min Humidity, Max Sea Level PressureIn, Mean Sea Level PressureIn, Min Sea Level PressureIn, Max VisibilityMiles, Mean VisibilityMiles, Min VisibilityMiles, Max Wind SpeedMPH, Mean Wind SpeedMPH, Max Gust SpeedMPH,PrecipitationIn, CloudCover, Events, WindDirDegrees
2011-11-1,75,60,46,54,48,43,93,72,44,29.99,29.92,29.84,10,10,10,29,5,34,0.00,0,,174
2011-11-2,66,52,37,57,45,32,93,73,55,30.30,29.98,29.81,10,9,2,29,17,40,0.00,4,Rain,210
2011-11-3,53,42,32,32,28,21,87,70,28,30.39,30.30,30.26,10,10,10,20,14,29,0.00,0,,316
2011-11-4,60,42,24,32,26,21,93,67,25,30.27,30.16,30.02,10,10,10,16,2,,0.00,1,,175
2011-11-5,64,50,35,45,37,28,87,70,39,30.02,29.89,29.72,10,10,10,24,6,39,0.00,1,,160
2011-11-6,71,58,44,50,42,32,94,65,25,29.99,29.86,29.76,10,10,10,20,10,24,0.00,0,,185
2011-11-7,71,56,41,68,49,34,100,88,62,29.99,29.91,29.79,10,8,0,18,3,26,0.33,7,Fog-Rain-Thunderstorm,26
2011-11-8,50,44,39,50,44,36,100,94,87,30.14,29.94,29.82,10,6,2,26,11,33,0.20,8,Rain-Thunderstorm,327
2011-11-9,55,46,37,37,35,34,93,79,44,30.39,30.31,30.15,10,10,10,20,10,28,0.00,0,,324
2011-11-10,62,48,35,43,35,32,93,79,37,30.40,30.27,30.08,10,10,10,14,1,,0.00,0,,227
2011-11-11,60,48,35,43,36,32,93,81,45,30.07,29.94,29.79,10,10,10,16,2,,0.00,1,,204
2011-11-12,68,54,41,45,40,36,87,64,37,29.78,29.65,29.54,10,10,10,23,7,30,0.00,1,,184
2011-11-13,68,58,48,52,43,36,88,62,42,29.62,29.55,29.51,10,10,10,18,10,24,0.00,2,,208
2011-11-14,62,53,44,46,43,36,87,63,37,29.79,29.70,29.57,10,10,10,14,4,18,0.00,2,,274
2011-11-15,66,54,41,48,39,34,93,70,37,29.91,29.80,29.69,10,10,10,16,5,22,0.00,0,,6
2011-11-16,46,38,30,34,30,21,100,76,37,30.44,30.17,29.92,10,10,10,24,11,30,0.00,1,,10
2011-11-17,51,38,26,34,29,27,100,83,38,30.45,30.31,30.06,10,10,10,18,2,25,0.00,0,,182
2011-11-18,59,49,39,50,38,30,82,67,51,30.06,29.87,29.69,10,10,10,30,19,39,0.00,1,,179
2011-11-19,71,54,35,55,45,32,94,79,43,30.02,29.77,29.62,10,10,10,32,20,37,0.00,3,,194
2011-11-20,39,36,33,32,32,30,93,85,75,30.21,30.14,30.03,10,9,5,18,12,23,0.00,7,,3
2011-11-21,37,35,33,37,34,32,100,93,87,30.20,30.11,29.94,10,6,2,16,2,22,0.00,8,Rain,356
2011-11-22,53,43,33,41,37,34,100,91,58,30.18,30.08,30.01,10,5,0,18,11,22,0.00,5,Fog,332
2011-11-23,68,50,32,48,37,32,100,88,40,30.27,30.19,30.17,10,6,0,12,1,,0.00,2,Fog,179
2011-11-24,66,52,37,52,42,36,100,88,60,30.19,30.10,29.99,10,8,4,23,5,29,0.00,1,,168
2011-11-25,57,54,50,55,51,46,100,92,82,29.99,29.87,29.76,10,4,2,25,14,36,0.25,8,Rain,176
2011-11-26,59,48,37,57,40,19,100,74,46,30.29,29.99,29.71,10,8,3,31,12,47,0.37,5,Rain,334
2011-11-27,46,38,30,27,21,14,86,60,34,30.36,30.27,30.20,10,10,10,21,14,32,0.00,0,,331
2011-11-28,51,38,26,32,26,21,93,75,33,30.20,30.12,30.03,10,10,10,7,1,,0.00,0,,184
2011-11-29,53,42,32,36,30,25,87,77,47,30.32,30.22,30.12,10,10,10,18,5,26,0.00,1,,343
2011-11-30,55,40,26,32,29,25,100,81,41,30.26,30.09,29.93,10,10,10,18,2,23,0.00,0,,169